User: anonymous   Login
Location: Caltech
(34.1382°N, 118.1253°W)
Time: 00:30:14
(UTC-07:00)
Language:

Cosmos 2251 Rocket - Orbit

View from above orbital plane
View from above orbital plane
View from above satellite
View from above satellite

Ground track
Ground track

The orbit data is extracted from the following two-line orbital elements,

1 22676U 93036B   17112.94119261 +.00000126 +00000-0 +54350-4 0  9999
2 22676 074.0412 282.9080 0019445 321.4138 038.5623 14.33914858247148
Epoch (UTC): 22 April 2017 22:35:19
Eccentricity: 0.0019445
inclination: 74.0412°
perigee height: 765 km
apogee height: 792 km
right ascension of ascending node: 282.9080°
argument of perigee: 321.4138°
revolutions per day: 14.33914858
mean anomaly at epoch: 38.5623°
orbit number at epoch: 24714

The dashed part of the orbit path shows where the satellite is in the earth's shadow,  

DLR